Location: Goettingen
(51.5300°N, 9.9433°E)
Time: 19:55:22
(UTC+01:00)

ISS - Pass Details

Date: 12 December 2017
Orbit: 402 x 407 km, 51.6° (Epoch: 11 December)

Event Time Altitude Azimuth Distance (km) Brightness Sun altitude
Rises 17:17:10 0° 281° (W) 2,332 1.0 -9.6°
Reaches altitude 10° 17:19:16 10° 279° (W) 1,470 -0.1 -9.9°
Maximum altitude 17:22:32 71° 196° (SSW) 434 -3.6 -10.4°
Drops below altitude 10° 17:25:49 10° 111° (ESE) 1,464 -1.4 -10.8°
Enters shadow 17:25:59 - 111° (ESE) 1,534 -1.3 -10.8°
